Le nostre stazioni meteo in Italia

Pubblicità
Il mio iltempo24.it
Termoli, Italia (16232): Temperatura & dewpoint: 08.11.2019 22:00:00 - 14.11.2019 22:00:00 (CET)Termoli, Italia (16232): velocità del vento: 08.11.2019 22:00:00 - 14.11.2019 22:00:00 (CET)Termoli, Italia (16232): direzione del vento: 08.11.2019 22:00:00 - 14.11.2019 22:00:00 (CET)Termoli, Italia (16232): reduced air pressure: 08.11.2019 22:00:00 - 14.11.2019 22:00:00 (CET)Termoli, Italia (16232): visibility: 08.11.2019 22:00:00 - 14.11.2019 22:00:00 (CET)Termoli, Italia (16232): ore di luce: 08.11.2019 22:00:00 - 14.11.2019 22:00:00 (CET)
Data & Tempo tt [°C] td [°C] ff [km/h] ff [kn] dd ppp [hPa] vv [km] sd [min]
14.11.2019 22:00:00 - - - - - - - -
14.11.2019 21:00:00 - - - - - - - -
14.11.2019 20:00:00 - - - - - - - -
14.11.2019 19:00:00 15,0 12,9 24 13 SSE 1007,4 20 -
14.11.2019 18:00:00 - - - - - - - -
14.11.2019 17:00:00 - - - - - - - -
14.11.2019 16:00:00 16,4 12,2 9 5 SE 1007,2 25 12
14.11.2019 15:00:00 - - - - - - - -
14.11.2019 14:00:00 - - - - - - - -
14.11.2019 13:00:00 15,8 11,0 8 4 ESE 1008,0 20 18
14.11.2019 12:00:00 - - - - - - - -
14.11.2019 11:00:00 - - - - - - - -
14.11.2019 10:00:00 14,0 8,8 8 4 SSO 1008,3 20 0
14.11.2019 09:00:00 - - - - - - - -
14.11.2019 08:00:00 - - - - - - - -
14.11.2019 07:00:00 14,0 7,1 9 5 O 1007,3 20 0
14.11.2019 06:00:00 - - - - - - - -
14.11.2019 05:00:00 - - - - - - - -
14.11.2019 04:00:00 - - - - - - - -
14.11.2019 03:00:00 - - - - - - - -
14.11.2019 02:00:00 - - - - - - - -
14.11.2019 01:00:00 - - - - - - - -
14.11.2019 00:00:00 - - - - - - - -
13.11.2019 23:00:00 - - - - - - - -
13.11.2019 22:00:00 - - - - - - - -
13.11.2019 21:00:00 - - - - - - - -
13.11.2019 20:00:00 - - - - - - - -
13.11.2019 19:00:00 16,0 11,2 8 4 S 1003,5 20 -
13.11.2019 18:00:00 - - - - - - - -
13.11.2019 17:00:00 - - - - - - - -
13.11.2019 16:00:00 19,6 9,8 4 2 S 1000,6 25 48
13.11.2019 15:00:00 - - - - - - - -
13.11.2019 14:00:00 - - - - - - - -
13.11.2019 13:00:00 17,4 13,5 9 5 N 998,8 25 60
13.11.2019 12:00:00 - - - - - - - -
13.11.2019 11:00:00 - - - - - - - -
13.11.2019 10:00:00 17,2 10,6 8 4 O 995,8 25 60
13.11.2019 09:00:00 - - - - - - - -
13.11.2019 08:00:00 - - - - - - - -
13.11.2019 07:00:00 14,4 12,3 13 7 S 992,7 15 -
13.11.2019 06:00:00 - - - - - - - -
13.11.2019 05:00:00 - - - - - - - -
13.11.2019 04:00:00 - - - - - - - -
13.11.2019 03:00:00 - - - - - - - -
13.11.2019 02:00:00 - - - - - - - -
13.11.2019 01:00:00 - - - - - - - -
13.11.2019 00:00:00 - - - - - - - -
12.11.2019 23:00:00 - - - - - - - -
12.11.2019 22:00:00 - - - - - - - -
12.11.2019 21:00:00 - - - - - - - -
12.11.2019 20:00:00 - - - - - - - -
12.11.2019 19:00:00 16,4 10,7 28 15 SE 995,5 15 -
12.11.2019 18:00:00 - - - - - - - -
12.11.2019 17:00:00 - - - - - - - -
12.11.2019 16:00:00 16,2 14,5 13 7 ESE 993,6 12 0
12.11.2019 15:00:00 - - - - - - - -
12.11.2019 14:00:00 - - - - - - - -
12.11.2019 13:00:00 15,0 13,7 21 11 ONO 992,5 8 0
12.11.2019 12:00:00 - - - - - - - -
12.11.2019 11:00:00 - - - - - - - -
12.11.2019 10:00:00 16,2 14,9 11 6 ONO 996,7 8 0
12.11.2019 09:00:00 - - - - - - - -
12.11.2019 08:00:00 - - - - - - - -
12.11.2019 07:00:00 16,0 14,9 13 7 SSE 999,9 10 -
12.11.2019 06:00:00 - - - - - - - -
12.11.2019 05:00:00 - - - - - - - -
12.11.2019 04:00:00 - - - - - - - -
12.11.2019 03:00:00 - - - - - - - -
12.11.2019 02:00:00 - - - - - - - -
12.11.2019 01:00:00 - - - - - - - -
12.11.2019 00:00:00 - - - - - - - -
11.11.2019 23:00:00 - - - - - - - -
11.11.2019 22:00:00 - - - - - - - -
11.11.2019 21:00:00 - - - - - - - -
11.11.2019 20:00:00 - - - - - - - -
11.11.2019 19:00:00 17,4 13,9 4 2 SSE 1009,2 20 -
11.11.2019 18:00:00 - - - - - - - -
11.11.2019 17:00:00 - - - - - - - -
11.11.2019 16:00:00 19,0 12,7 9 5 SSE 1010,2 20 6
11.11.2019 15:00:00 - - - - - - - -
11.11.2019 14:00:00 - - - - - - - -
11.11.2019 13:00:00 18,6 11,7 18 10 ESE 1011,2 20 36
11.11.2019 12:00:00 - - - - - - - -
11.11.2019 11:00:00 - - - - - - - -
11.11.2019 10:00:00 16,4 10,5 21 11 SSE 1013,3 20 36
11.11.2019 09:00:00 - - - - - - - -
11.11.2019 08:00:00 - - - - - - - -
11.11.2019 07:00:00 13,8 8,4 9 5 SSE 1013,4 25 0
11.11.2019 06:00:00 - - - - - - - -
11.11.2019 05:00:00 - - - - - - - -
11.11.2019 04:00:00 - - - - - - - -
11.11.2019 03:00:00 - - - - - - - -
11.11.2019 02:00:00 - - - - - - - -
11.11.2019 01:00:00 - - - - - - - -
11.11.2019 00:00:00 - - - - - - - -
10.11.2019 23:00:00 - - - - - - - -
10.11.2019 22:00:00 - - - - - - - -
10.11.2019 21:00:00 - - - - - - - -
10.11.2019 20:00:00 - - - - - - - -
10.11.2019 19:00:00 14,4 11,7 13 7 SE 1012,3 25 -
10.11.2019 18:00:00 - - - - - - - -
10.11.2019 17:00:00 - - - - - - - -
10.11.2019 16:00:00 16,0 11,4 8 4 ENE 1010,2 35 18
10.11.2019 15:00:00 - - - - - - - -
10.11.2019 14:00:00 - - - - - - - -
10.11.2019 13:00:00 18,0 9,6 2 1 NE 1009,2 35 -
10.11.2019 12:00:00 - - - - - - - -
10.11.2019 11:00:00 - - - - - - - -
10.11.2019 10:00:00 15,4 10,6 11 6 ONO 1008,4 20 54
10.11.2019 09:00:00 - - - - - - - -
10.11.2019 08:00:00 - - - - - - - -
10.11.2019 07:00:00 12,0 7,3 15 8 OSO 1007,4 20 0
10.11.2019 06:00:00 - - - - - - - -
10.11.2019 05:00:00 - - - - - - - -
10.11.2019 04:00:00 - - - - - - - -
10.11.2019 03:00:00 - - - - - - - -
10.11.2019 02:00:00 - - - - - - - -
10.11.2019 01:00:00 - - - - - - - -
10.11.2019 00:00:00 - - - - - - - -
09.11.2019 23:00:00 - - - - - - - -
09.11.2019 22:00:00 - - - - - - - -
09.11.2019 21:00:00 - - - - - - - -
09.11.2019 20:00:00 - - - - - - - -
09.11.2019 19:00:00 14,2 11,7 5 3 S 1008,4 10 -
09.11.2019 18:00:00 - - - - - - - -
09.11.2019 17:00:00 - - - - - - - -
09.11.2019 16:00:00 15,2 11,8 4 2 OSO 1009,2 20 0
09.11.2019 15:00:00 - - - - - - - -
09.11.2019 14:00:00 - - - - - - - -
09.11.2019 13:00:00 17,0 7,9 13 7 S 1009,4 25 0
09.11.2019 12:00:00 - - - - - - - -
09.11.2019 11:00:00 - - - - - - - -
09.11.2019 10:00:00 15,0 10,8 11 6 SSE 1009,1 25 0
09.11.2019 09:00:00 - - - - - - - -
09.11.2019 08:00:00 - - - - - - - -
09.11.2019 07:00:00 15,0 9,6 15 8 S 1008,2 25 0
09.11.2019 06:00:00 - - - - - - - -
09.11.2019 05:00:00 - - - - - - - -
09.11.2019 04:00:00 - - - - - - - -
09.11.2019 03:00:00 - - - - - - - -
09.11.2019 02:00:00 - - - - - - - -
09.11.2019 01:00:00 - - - - - - - -
09.11.2019 00:00:00 - - - - - - - -
08.11.2019 23:00:00 - - - - - - - -
08.11.2019 22:00:00 - - - - - - - -

tt = Temperatura
td = dewpoint
ff = velocità del vento
dd = direzione del vento
ppp = reduced air pressure
vv = visibility
sd = ore di luce

Stazioni seguenti

WeatherPro
AMSI
MeteoEarth